Theta_e
297 298 298 297 296 297 297 297 297 298 298 299 299 300 300 299 299 300 298 299 299 298 297 297 297 296 296 296 296 296 296 295 295 296 296 297 297 297 296 295 295 294 293 290 289 289 289 289 288 287 285 285 284 284 283 282 281 281 281 281 280 280 281 280 280 277 278 279 280 281 281 281 281 282 281 281 280 280 283 281 280 279 279 279 279
298 298 297 297 296 296 295 295 297 297 297 297 296 296 295 296 297 295 297 298 297 297 296 295 295 295 295 295 295 295 295 296 293 293 295 295 296 295 294 293 293 293 290 290 288 288 288 288 287 285 284 284 283 282 282 281 281 280 280 281 280 280 281 280 279 279 278 277 279 280 280 281 280 281 281 280 280 279 279 280 280 279 279 279 278
298 297 296 295 295 294 294 294 294 293 294 295 295 295 294 293 294 296 297 297 296 297 296 295 294 294 294 294 295 294 294 294 293 292 293 294 294 293 293 293 293 293 290 290 289 287 287 287 286 284 283 283 283 282 282 282 281 281 280 280 280 280 280 281 280 279 278 278 278 279 279 279 280 280 280 281 280 279 278 278 278 279 280 279 278
295 295 295 294 293 292 292 292 291 292 293 294 294 294 293 292 292 294 296 296 296 295 295 295 294 293 293 294 294 294 293 293 292 292 293 294 294 293 292 291 292 292 291 290 289 287 287 286 285 283 282 282 281 280 280 280 280 280 280 279 280 279 279 280 281 279 278 277 277 279 279 279 280 278 279 280 279 277 277 277 277 278 278 279 278
294 295 293 293 292 291 291 291 291 291 292 293 293 292 291 291 291 293 295 296 295 295 293 293 293 293 293 293 293 293 293 293 293 292 292 293 293 293 292 291 292 292 291 290 288 287 287 286 285 283 282 282 281 280 280 280 280 280 279 279 280 279 279 279 279 278 278 278 277 277 278 279 279 278 278 277 277 276 276 276 277 277 277 277 278
294 294 294 292 293 291 292 291 291 292 292 292 292 291 291 291 292 292 294 295 294 294 294 293 293 293 293 293 293 293 293 293 293 293 293 293 293 293 292 291 291 291 290 289 287 286 286 286 284 283 282 282 281 280 280 280 279 279 279 280 280 279 279 278 278 278 278 278 278 276 276 277 276 276 276 277 276 276 275 275 275 276 276 276 277
293 293 292 292 293 292 292 292 292 292 291 291 290 290 290 291 291 293 292 293 294 294 293 293 292 292 292 292 292 292 292 292 292 292 292 292 292 292 291 290 290 290 289 288 286 286 286 285 284 283 283 283 281 280 280 280 280 280 280 280 279 279 278 278 278 278 278 277 277 277 277 277 276 276 276 276 276 275 275 274 275 276 275 275 275
291 292 292 292 292 293 293 293 292 291 291 290 290 290 290 291 291 292 291 292 293 293 293 292 292 291 292 292 292 292 291 291 291 291 291 291 291 291 291 290 289 289 288 287 286 285 285 285 283 283 283 283 282 281 281 281 281 280 280 280 280 279 278 278 277 278 277 277 276 276 276 276 276 276 275 275 275 274 275 274 274 275 275 275 275
291 292 291 291 293 294 294 292 291 290 290 290 290 290 290 291 290 290 291 292 293 293 293 292 292 291 291 291 291 291 291 291 291 291 290 290 290 290 290 289 289 288 287 286 285 285 284 284 283 282 283 283 284 283 283 283 281 281 280 280 280 279 278 278 278 277 277 277 276 276 276 276 276 276 275 275 274 275 274 274 274 275 275 274 275
290 291 291 292 294 294 293 291 291 289 289 290 290 290 290 290 290 290 290 291 291 291 291 291 292 292 291 290 290 290 290 291 289 290 291 290 289 289 289 288 288 288 287 285 284 284 283 283 283 283 283 283 283 284 285 285 285 283 281 280 280 279 278 277 277 277 277 276 276 276 275 275 276 276 276 276 276 275 274 274 273 274 273 273 274
289 290 292 293 293 293 292 291 289 289 289 289 289 289 289 289 289 289 289 289 290 290 290 290 291 291 291 290 290 289 290 290 289 291 292 292 289 289 288 288 287 287 286 285 283 282 282 282 281 282 283 283 283 284 285 286 286 285 285 284 283 280 278 278 277 278 277 276 277 277 276 276 277 277 277 276 276 275 275 275 274 273 272 271 271
289 290 291 292 292 292 292 291 289 290 289 289 289 288 288 288 288 288 288 288 288 288 289 290 290 290 290 290 290 289 289 289 291 291 292 292 290 288 288 287 286 286 285 285 284 282 281 281 280 281 281 281 281 283 285 286 286 286 285 285 284 284 283 280 278 277 277 276 276 276 277 277 277 277 276 276 276 275 275 274 273 273 272 272 272
289 289 290 290 291 291 291 290 290 290 290 289 288 288 288 288 288 288 288 288 287 287 288 288 289 290 290 289 289 289 289 289 290 291 291 291 292 289 287 287 286 285 285 284 284 282 281 280 279 280 281 283 283 283 283 284 285 286 285 284 284 284 284 284 283 280 279 278 277 277 277 278 277 277 277 276 277 275 274 273 273 273 273 273 273
287 289 290 290 290 290 290 289 290 290 290 288 288 287 287 288 288 288 288 287 287 287 287 287 288 288 289 289 289 289 288 289 290 290 290 291 291 290 287 286 286 285 284 284 283 282 281 280 280 280 281 282 282 283 283 283 283 282 282 282 281 283 285 285 283 283 281 280 279 278 279 278 278 278 277 279 276 275 274 273 274 274 274 275 276
288 288 288 289 288 289 289 289 289 289 289 288 287 287 288 288 287 287 287 287 287 287 287 287 287 287 287 288 289 288 288 289 290 290 290 291 291 290 287 285 285 284 284 283 282 282 281 281 281 280 281 281 282 283 283 282 282 281 281 280 280 281 282 282 281 281 280 280 280 280 279 279 279 277 277 278 277 277 276 276 276 276 276 276 275
288 288 288 288 289 289 288 289 289 289 288 288 287 287 287 287 287 287 286 287 287 286 287 287 287 287 287 287 287 287 288 289 289 290 290 291 291 288 286 285 284 283 283 282 282 282 281 281 281 281 281 282 284 285 284 283 282 281 280 280 280 280 281 283 284 283 281 280 280 280 279 279 280 278 278 277 277 277 279 278 276 274 271 270 270
288 288 288 289 289 288 288 288 289 288 288 287 287 287 287 287 287 287 286 286 286 286 286 286 286 286 286 286 286 287 287 288 289 289 290 291 290 287 285 284 283 282 282 281 281 281 281 281 281 281 282 282 285 287 286 284 281 280 280 279 279 279 279 281 284 285 284 284 283 283 283 283 283 283 283 283 281 279 277 274 272 268 268 268 268
288 288 288 289 289 288 288 288 288 288 288 288 288 288 288 287 287 286 286 286 285 285 286 285 285 286 286 286 286 286 287 287 288 289 289 290 288 286 285 283 282 282 281 281 281 281 281 282 282 282 282 283 286 287 286 284 281 280 279 279 278 277 278 279 280 282 285 285 285 284 284 284 285 285 285 285 285 282 276 274 272 270 269 268 268
288 288 289 289 288 288 288 287 288 288 288 288 288 288 287 287 287 286 286 286 286 285 284 284 285 285 285 285 285 285 286 286 287 288 289 289 288 286 284 283 282 281 280 280 280 280 281 282 283 283 283 284 287 287 286 284 282 281 280 279 278 277 278 278 278 278 280 280 280 281 281 283 283 282 282 285 286 283 279 277 274 273 271 270 270
288 288 287 287 287 287 287 287 287 287 288 288 288 287 287 286 285 284 284 284 285 284 283 284 283 284 284 283 284 285 285 285 286 288 288 289 289 286 284 282 281 280 280 279 279 279 280 281 283 285 286 287 287 288 287 286 283 282 281 280 279 279 280 278 278 278 278 278 278 278 278 277 278 279 278 279 280 280 279 278 278 276 274 273 272
287 287 287 287 287 287 287 287 287 287 287 287 288 287 286 285 284 283 283 282 282 282 281 282 282 282 281 281 282 283 284 284 285 287 288 289 289 287 283 282 282 281 280 279 279 279 279 280 282 285 286 287 288 288 288 287 285 282 282 282 282 283 281 278 278 279 277 276 276 275 276 276 276 276 276 276 277 277 278 280 279 278 276 274 273
286 286 286 286 287 287 287 287 286 287 287 286 286 286 284 283 283 283 282 281 281 281 280 280 280 280 279 279 280 281 282 284 283 285 287 288 289 288 284 283 282 281 280 279 279 279 280 281 282 284 286 287 288 288 288 288 286 282 283 285 286 285 280 279 279 278 276 276 275 274 274 274 274 274 275 276 276 277 277 277 279 278 278 277 275
285 285 285 286 286 286 286 285 286 286 285 285 285 285 282 280 280 280 280 279 279 279 278 278 279 278 278 277 279 279 280 282 284 284 286 288 289 287 286 284 284 282 280 278 279 279 281 281 283 285 287 287 288 288 288 288 286 284 286 286 286 284 281 278 278 277 276 276 275 275 275 274 275 275 275 275 276 276 277 277 277 277 275 274 274
285 284 285 285 285 285 285 284 284 284 284 283 283 283 281 279 279 279 279 279 279 278 278 278 278 277 277 277 277 278 280 281 283 284 285 287 289 287 286 285 285 281 281 280 280 280 280 281 283 286 287 287 288 289 288 287 285 286 286 286 286 284 280 279 278 277 277 276 276 276 276 276 276 276 276 276 276 277 276 274 273 273 273 272 271
284 284 284 284 284 284 283 282 282 281 282 282 282 281 279 277 278 277 278 278 278 278 278 278 278 278 278 277 278 279 280 281 282 284 284 286 288 288 286 286 285 284 281 281 281 280 282 283 285 286 287 287 288 288 287 286 287 286 286 286 285 283 280 279 278 278 277 277 277 277 277 277 277 277 277 276 274 273 272 271 270 269 268 268 267
283 283 284 284 283 282 281 281 279 279 280 280 281 281 281 279 279 278 278 278 278 279 278 278 279 279 278 279 279 278 279 280 280 282 284 285 286 286 286 285 284 284 282 281 282 282 283 284 285 286 286 286 286 285 285 285 286 286 286 285 284 283 281 280 279 278 278 278 278 277 277 277 275 274 274 273 273 272 271 270 269 268 268 266 265
282 282 283 283 282 280 279 281 280 279 277 278 278 279 279 279 279 279 278 278 278 279 279 279 279 279 279 279 278 278 278 279 280 281 283 284 285 285 284 284 284 283 282 281 282 282 283 283 284 286 286 286 285 285 285 285 285 285 284 284 283 282 281 280 279 279 278 277 277 276 275 273 271 272 272 272 272 271 271 270 270 268 265 263 263
282 283 283 283 282 281 280 280 280 280 278 278 278 278 278 279 279 279 279 279 279 279 279 279 279 279 278 278 277 278 278 278 279 280 282 283 284 284 284 283 282 282 281 281 281 281 282 283 284 284 284 284 284 283 283 283 283 283 283 283 281 280 280 280 279 277 276 275 274 272 270 271 271 271 271 271 270 269 270 269 268 265 264 262 259
282 282 282 282 281 281 280 280 280 280 279 278 279 280 280 280 280 280 281 281 282 281 280 280 280 280 280 279 278 277 278 278 279 282 282 284 284 283 283 282 282 281 281 282 281 281 281 281 281 281 281 281 281 281 281 280 280 281 281 280 278 278 278 277 276 275 274 273 272 271 271 271 271 271 270 270 269 268 267 266 265 264 262 262 262
281 282 282 281 281 280 280 279 279 279 279 279 278 278 279 282 282 281 280 282 283 284 284 282 282 282 281 281 281 279 279 279 282 283 283 284 285 285 285 284 284 282 283 284 282 280 280 279 279 279 280 280 280 280 279 279 278 277 277 278 276 276 276 275 275 274 274 274 273 272 271 271 269 269 269 269 267 265 266 267 264 264 262 262 260
281 281 282 281 281 281 280 279 279 279 279 278 278 278 277 278 284 284 283 282 283 284 285 285 285 284 282 281 282 283 282 282 282 283 283 284 285 285 285 285 285 284 284 282 280 279 279 278 279 279 279 280 279 279 278 278 277 277 275 275 274 275 274 274 273 274 274 273 272 272 271 270 269 269 268 267 266 265 264 266 265 264 263 261 257
280 281 282 282 281 281 280 280 279 278 278 277 277 277 277 277 276 283 284 284 284 284 285 285 284 284 284 283 281 281 282 282 283 283 283 284 284 285 285 285 285 285 285 284 280 279 279 279 279 279 279 279 279 278 277 277 277 276 274 272 271 272 273 272 272 273 273 272 271 270 270 269 269 268 268 267 266 265 264 264 264 263 261 258 258
279 280 281 281 281 281 280 279 279 278 278 277 277 277 277 277 277 277 278 284 284 284 284 285 284 284 284 284 284 282 282 282 283 283 283 283 284 285 285 286 285 285 285 282 279 279 279 279 278 279 278 278 278 277 276 276 275 274 273 273 272 271 271 272 273 272 271 271 270 269 269 269 268 268 267 267 266 264 263 263 263 263 262 259 257
279 279 280 281 281 280 280 280 280 279 279 278 278 277 278 278 278 279 278 278 280 283 284 284 284 284 284 284 284 283 283 283 283 283 283 283 284 285 285 285 286 286 284 280 279 278 279 278 278 278 278 278 276 275 274 274 273 272 272 272 271 270 270 270 271 270 270 271 269 268 268 268 268 267 266 266 266 265 264 263 262 260 258 259 257
278 278 278 278 280 280 280 280 279 279 279 279 278 278 279 279 279 279 279 279 279 279 279 281 283 284 283 283 284 283 283 283 283 283 283 284 284 285 286 283 282 282 282 281 279 279 278 278 277 276 276 275 274 273 273 272 272 271 271 270 269 269 268 269 270 269 269 269 269 269 269 269 268 268 267 265 264 264 264 262 260 259 258 254 253
277 277 278 279 279 280 280 281 280 280 280 280 280 280 279 279 279 279 280 279 279 279 279 280 280 283 284 283 283 283 283 283 283 283 283 284 284 285 281 280 281 281 280 280 278 277 277 277 276 275 274 274 273 272 272 272 271 271 270 270 269 268 268 268 268 268 266 267 267 269 269 268 268 267 266 265 264 263 261 260 258 256 256 255 254
275 276 277 278 279 280 281 281 281 281 281 281 280 280 279 279 279 279 278 278 278 278 278 277 278 279 281 280 282 283 283 283 283 283 283 283 284 283 281 280 280 280 279 277 277 276 275 275 274 273 273 272 272 272 272 271 271 270 271 270 269 268 268 268 268 267 266 264 265 267 267 267 267 266 266 264 262 261 260 259 258 257 256 256 257
273 274 276 277 279 280 281 281 281 281 281 280 279 279 278 278 278 277 277 276 276 276 276 277 278 277 277 278 281 281 282 283 283 282 282 282 282 280 279 279 279 279 277 276 275 275 274 273 273 272 272 272 272 272 272 271 271 271 270 269 269 268 269 269 269 267 266 267 266 266 266 266 266 265 264 264 263 261 260 259 257 255 255 256 255
272 275 276 278 279 280 281 281 281 281 280 279 278 278 277 277 276 276 275 275 275 275 275 276 276 276 277 278 279 280 281 279 279 279 279 280 280 279 278 278 278 277 275 275 274 274 273 272 271 272 272 272 272 272 272 271 271 271 270 270 269 268 269 267 267 266 266 265 265 265 266 265 265 264 264 264 262 261 260 258 256 256 256 254 253
271 273 276 278 279 280 281 280 280 280 279 278 277 277 277 276 276 276 275 275 275 275 276 275 275 276 277 278 278 279 278 278 278 278 278 277 276 276 276 276 275 274 274 274 273 273 272 272 272 271 271 271 272 271 271 271 271 270 270 270 269 268 268 267 267 265 265 264 263 262 264 264 264 263 262 262 262 259 257 255 254 254 254 252 252
271 273 274 277 279 280 279 279 279 279 278 278 278 277 277 276 276 275 275 275 275 274 275 275 275 276 277 277 280 279 277 277 277 277 276 275 274 275 275 275 274 274 273 273 272 272 271 271 271 270 270 270 270 270 270 270 270 269 269 268 268 267 266 265 265 264 263 261 261 260 260 261 259 260 259 258 259 257 253 253 252 252 252 252 251
271 272 274 276 277 278 279 278 278 277 277 276 277 277 276 275 275 275 274 274 273 273 273 273 274 274 277 279 279 280 276 275 274 273 274 274 273 272 272 272 273 273 272 272 271 270 270 270 269 269 269 268 269 268 268 268 268 268 267 267 266 264 263 262 261 261 260 260 258 258 256 255 256 256 257 258 253 252 250 251 251 251 250 251 250
271 273 274 275 276 277 277 278 277 277 277 276 276 274 274 275 274 274 273 273 273 273 272 271 272 274 276 279 278 276 273 273 270 271 271 270 269 268 268 267 266 267 268 268 269 269 269 268 268 267 267 267 267 267 267 267 266 266 265 265 264 263 263 260 258 258 257 257 256 254 254 255 256 253 253 252 250 251 251 251 250 249 250 249 250
271 273 273 274 275 276 275 276 276 276 276 274 274 273 273 273 273 272 272 272 271 271 271 271 272 274 273 273 273 271 271 271 270 269 268 266 266 265 264 264 263 263 263 264 264 266 266 265 263 260 259 260 260 261 262 263 264 264 263 262 261 260 259 258 258 256 256 256 254 254 253 253 254 252 253 252 250 251 250 249 250 250 249 248 248
271 273 273 273 273 274 274 274 274 273 272 272 272 272 271 272 272 271 271 270 269 269 270 271 271 270 269 270 270 269 269 267 266 266 265 265 263 263 263 263 263 262 261 261 262 263 263 263 262 261 260 258 257 257 256 256 258 260 261 261 260 259 258 258 257 255 256 255 254 253 252 253 252 251 251 251 251 251 251 250 251 252 250 249 249
271 272 272 272 271 271 271 271 270 272 272 272 271 271 271 271 270 270 269 268 268 269 269 269 268 267 267 267 266 266 266 265 264 263 262 262 262 261 261 261 259 259 258 258 259 260 260 261 261 260 259 257 257 256 255 253 252 253 254 256 258 258 256 254 252 252 254 254 254 253 253 251 251 251 253 250 250 250 251 249 248 251 251 251 251
270 270 270 270 269 269 269 269 270 270 270 270 269 269 269 268 268 267 266 267 267 267 268 267 266 266 265 265 265 264 263 263 263 262 262 261 259 259 259 258 258 257 257 256 257 257 257 257 257 257 256 255 254 254 253 253 253 252 251 250 251 250 249 251 252 253 252 252 253 251 252 252 252 250 252 251 249 251 250 251 250 250 250 251 251
268 268 268 268 268 268 268 269 268 267 268 267 267 266 266 266 266 266 266 266 266 266 266 266 265 264 263 262 262 262 262 261 260 260 260 259 258 258 258 258 257 256 256 256 255 255 255 255 255 255 255 254 254 254 253 252 252 251 251 249 249 249 249 250 249 249 250 251 251 251 252 252 250 251 251 252 250 251 251 251 250 249 249 250 250
267 267 267 267 267 267 267 267 266 267 266 265 265 265 264 265 264 265 265 265 265 265 265 264 263 262 262 261 260 260 260 259 259 259 258 258 257 257 257 256 256 256 256 255 254 254 254 253 254 254 254 254 254 253 253 252 252 250 250 248 252 255 253 251 249 248 251 251 251 251 250 251 251 251 251 251 252 251 252 251 250 250 249 249 249
265 265 266 265 265 265 265 265 266 265 265 265 264 263 263 263 263 263 263 263 263 263 263 262 262 261 261 260 259 259 259 258 258 258 257 257 256 255 255 255 255 255 255 254 253 253 252 252 253 253 252 252 252 252 252 252 250 251 249 250 257 257 256 255 253 252 252 249 251 250 252 251 250 250 250 251 251 251 251 251 250 250 250 249 250
263 264 264 264 264 264 265 265 264 264 264 264 264 263 262 262 262 262 262 262 261 261 261 261 261 260 260 259 259 259 258 258 258 257 257 256 255 255 255 255 254 254 253 253 252 252 252 251 252 252 251 251 251 250 249 250 248 248 252 255 257 257 257 256 254 254 253 252 249 250 251 251 250 250 250 250 250 250 251 251 250 250 249 250 249
Wind_Speed
8 9 8 9 8 9 8 8 9 8 8 9 10 10 9 9 9 9 6 9 8 9 9 9 9 10 10 11 11 11 10 10 9 9 9 10 10 11 11 11 13 12 11 10 7 10 11 12 11 10 8 11 10 9 8 8 7 7 7 8 7 6 8 6 7 5 1 1 2 4 4 6 5 7 7 6 5 5 5 5 5 5 6 6 6
8 8 7 7 9 9 8 7 8 8 9 9 10 10 9 9 8 7 9 9 8 10 9 8 8 9 10 11 11 10 10 11 10 9 10 11 11 10 10 12 12 10 7 9 9 8 10 11 10 9 9 11 9 9 8 7 7 7 7 9 8 7 6 6 4 6 5 1 2 3 3 3 4 4 8 7 7 4 6 6 4 5 6 5 5
7 7 7 7 8 7 7 8 7 9 10 10 11 11 9 7 7 9 10 8 8 9 9 9 9 10 10 11 11 11 11 11 10 10 11 12 12 11 10 12 14 14 13 13 12 10 10 10 11 10 8 8 7 9 8 10 9 10 9 7 9 8 5 6 6 5 7 4 3 4 4 4 6 5 7 6 5 5 6 6 6 4 5 5 6
6 6 7 8 7 7 9 8 8 10 11 11 12 10 8 8 8 9 9 8 9 9 9 10 10 11 11 11 11 11 11 11 9 11 12 12 12 12 10 10 10 10 12 12 12 11 13 12 11 12 11 12 10 9 8 8 8 7 8 7 9 9 7 7 7 6 5 7 3 5 4 5 5 2 3 4 4 4 4 3 2 4 5 5 6
7 8 7 9 8 9 10 9 10 12 13 10 11 9 8 7 8 9 9 9 9 8 9 8 10 10 11 12 11 11 11 11 11 11 11 10 11 11 11 11 12 12 12 12 12 13 13 14 13 12 12 13 11 10 9 11 9 9 9 8 9 8 7 8 8 6 7 8 5 2 3 3 2 2 4 5 4 3 2 5 5 5 4 4 4
8 8 8 8 9 10 11 10 12 14 12 10 10 8 8 8 9 8 9 11 9 9 10 9 10 11 11 10 10 11 10 11 12 13 13 12 11 11 11 11 11 11 10 10 11 12 13 13 12 13 13 14 13 11 11 11 9 9 10 9 9 9 9 8 7 7 7 7 8 5 2 5 3 3 4 5 4 3 3 3 3 4 4 5 5
6 7 8 9 9 11 11 12 12 11 11 10 8 8 9 9 9 11 9 10 11 11 10 10 9 10 10 10 11 11 10 10 11 12 12 12 12 11 11 11 11 10 10 11 11 12 12 12 12 13 14 14 14 13 12 11 11 12 11 10 8 9 9 8 8 7 7 7 5 5 6 4 3 5 2 3 3 3 4 2 4 3 4 4 6
6 8 8 8 9 12 13 11 9 10 8 8 9 9 9 10 11 9 8 11 12 11 11 11 9 9 11 11 11 10 11 11 11 12 11 12 11 12 12 11 11 10 10 10 11 12 12 12 13 14 15 14 14 13 15 13 10 9 7 8 9 10 9 8 7 7 7 7 5 6 4 5 2 1 2 2 1 3 4 5 6 5 4 3 5
6 7 7 8 12 13 11 8 7 8 7 8 9 10 11 10 9 9 10 11 10 10 10 10 11 11 11 11 11 10 11 12 11 11 11 11 11 12 12 12 12 12 11 11 11 12 12 12 13 13 14 15 18 17 16 15 13 11 9 9 9 9 7 7 7 7 6 6 5 4 5 4 5 5 5 5 7 8 3 5 6 5 4 4 4
7 7 8 11 12 11 8 6 7 5 7 10 10 9 9 9 9 10 11 11 10 10 9 10 11 13 12 12 11 10 11 10 12 17 15 12 12 11 11 12 12 12 12 12 11 12 13 12 12 18 18 18 18 18 18 17 16 14 13 12 10 9 9 9 8 8 8 8 7 7 6 6 7 7 7 7 5 2 4 5 5 3 0 3 4
6 7 10 11 10 8 7 8 5 7 9 8 9 9 9 8 9 10 11 11 11 10 9 11 12 12 13 12 12 12 11 10 16 17 19 19 13 11 12 12 11 12 12 13 13 13 11 10 9 14 16 15 16 19 18 18 16 14 12 12 11 14 12 10 9 9 9 8 6 6 7 7 8 7 7 5 4 6 5 4 4 2 2 2 4
7 8 10 9 8 9 9 7 7 9 8 10 9 8 7 8 10 10 10 10 10 8 10 12 12 11 11 12 13 12 11 13 18 19 21 21 17 12 11 10 11 11 12 13 12 11 12 12 10 8 10 12 12 12 13 17 16 14 14 13 14 12 14 15 13 9 9 8 8 8 7 8 7 6 6 5 5 4 4 4 4 4 4 3 3
6 8 9 8 9 8 7 8 9 9 10 9 7 6 8 9 10 10 12 10 7 10 12 11 12 11 12 13 13 12 11 13 18 20 19 21 19 15 10 11 11 12 12 13 13 12 11 11 10 8 7 13 12 11 12 12 14 14 13 15 13 14 12 10 11 12 11 9 9 8 9 8 6 7 7 6 4 5 4 4 4 4 4 3 4
6 9 8 8 8 7 7 8 10 11 9 7 7 8 8 12 11 9 8 7 10 11 11 12 11 12 13 13 12 12 12 13 18 19 19 20 19 13 11 11 11 11 13 12 11 11 11 11 11 11 10 11 10 11 11 10 9 9 9 8 9 10 11 12 11 10 10 9 9 10 9 7 7 5 6 6 6 5 5 4 4 3 3 4 3
7 7 7 7 6 8 8 8 10 10 8 7 7 9 11 11 10 9 9 11 11 12 12 13 13 12 12 11 12 12 11 14 17 19 20 20 17 15 11 9 9 10 11 11 11 12 13 13 14 13 13 12 10 13 12 11 10 9 9 8 8 8 8 8 8 8 8 6 8 6 6 7 5 5 6 6 7 6 5 4 4 3 1 1 2
8 6 7 8 8 8 7 8 9 9 8 8 9 11 11 11 11 9 9 9 9 9 9 9 12 12 12 12 12 13 12 16 18 19 21 21 21 14 11 10 10 9 10 10 11 11 11 13 13 13 15 15 14 17 14 13 12 12 10 8 7 6 7 4 5 6 6 6 6 6 5 6 6 5 6 5 4 3 3 3 3 2 1 1 2
8 7 8 9 9 7 7 8 9 9 8 8 10 11 11 11 10 7 9 10 10 11 11 11 10 11 12 12 13 13 11 14 18 20 21 22 18 12 11 10 10 10 10 10 11 11 12 13 13 13 13 13 17 19 19 16 13 13 12 11 8 7 6 4 6 8 9 9 9 9 9 10 10 10 10 11 8 6 5 4 3 4 2 1 2
7 7 9 9 8 8 7 8 10 9 8 11 12 11 10 8 9 8 11 11 11 12 10 10 9 10 12 13 13 13 12 12 18 20 21 23 18 13 11 11 11 11 10 11 10 10 12 17 14 13 14 14 20 21 22 16 13 13 13 12 10 9 7 5 4 5 9 9 10 10 10 10 10 11 11 11 12 10 7 7 4 6 3 4 3
8 8 9 8 8 8 8 8 9 10 10 12 11 11 10 11 9 8 10 9 11 9 9 9 10 10 11 12 14 14 11 11 17 19 21 21 17 11 10 9 10 9 9 9 8 9 9 13 17 16 16 16 23 22 23 17 14 14 13 12 11 11 10 9 9 7 6 5 5 5 5 7 5 4 5 10 11 10 8 6 5 5 4 4 4
9 8 9 9 9 9 8 9 10 10 12 11 9 10 8 7 8 8 9 9 9 8 8 9 11 10 9 10 10 11 11 9 10 18 18 19 19 12 9 10 11 10 9 10 9 8 10 10 13 16 15 22 24 25 23 21 14 11 11 11 11 11 8 9 8 8 7 7 6 5 5 3 3 3 3 3 4 3 4 5 5 5 6 5 5
9 9 9 9 10 10 9 8 11 11 10 10 9 8 7 8 7 8 9 8 8 8 9 8 9 9 8 8 8 9 9 9 9 15 18 19 21 18 11 12 10 10 10 10 10 10 10 10 10 14 18 20 23 24 24 21 16 12 12 11 11 7 11 8 8 9 7 6 5 5 5 4 3 4 4 4 4 3 3 4 5 5 6 6 5
9 9 10 10 11 10 10 10 9 10 9 8 9 9 7 7 8 8 7 7 9 10 7 7 8 8 6 7 7 8 8 11 9 14 18 20 21 19 13 11 10 10 9 9 9 9 11 11 10 15 19 19 23 23 24 22 18 10 10 11 12 15 10 7 7 7 6 6 5 5 4 4 4 4 4 4 4 4 4 4 4 5 6 6 7
9 10 10 11 11 11 10 10 10 7 8 8 9 10 6 6 7 6 7 7 8 8 8 7 7 7 6 6 6 6 6 7 12 10 15 19 17 17 15 10 14 10 11 11 11 9 8 10 11 18 20 21 22 24 23 22 16 10 14 15 15 15 11 7 7 7 6 6 6 5 5 5 5 5 5 5 5 4 5 4 3 2 2 2 3
9 11 11 11 11 11 10 10 9 8 8 8 8 9 7 6 6 7 7 8 8 8 7 7 7 8 8 7 6 6 6 6 9 13 13 19 19 22 20 17 16 10 9 9 9 9 9 9 10 18 20 21 22 22 22 19 11 16 16 16 16 13 7 8 7 7 6 6 6 6 6 6 6 6 5 5 6 5 3 2 3 2 3 3 4
11 12 13 12 11 11 10 9 9 8 8 7 8 8 7 6 7 6 7 7 7 8 8 8 9 9 9 9 8 7 7 7 7 11 16 16 20 20 20 18 18 17 11 8 9 9 11 16 15 19 20 22 25 23 18 19 20 16 17 16 13 7 7 7 7 7 7 7 7 6 6 6 7 6 6 5 3 5 5 3 3 4 4 4 4
13 14 13 12 12 10 10 11 8 8 8 7 8 8 8 8 8 7 7 8 8 9 8 7 8 8 8 8 7 7 6 6 7 7 9 11 13 19 21 19 18 17 14 10 14 16 17 17 20 20 19 18 15 11 9 10 14 14 15 14 8 7 7 7 7 8 8 7 7 7 6 5 5 4 4 5 6 6 6 5 5 3 2 2 1
12 13 14 12 11 10 10 10 9 7 6 7 7 7 6 7 7 7 8 8 8 8 8 8 8 8 8 7 6 5 6 6 7 7 7 8 8 11 13 13 16 16 12 9 13 12 15 16 13 15 12 16 13 10 9 10 10 10 8 8 7 7 8 8 9 8 7 6 6 6 5 4 5 6 5 5 5 4 4 6 5 3 4 3 3
12 14 15 11 10 9 9 11 10 8 7 7 7 7 6 7 8 10 10 10 9 9 9 9 9 9 8 7 6 6 7 7 7 8 9 9 9 10 10 10 11 10 10 10 10 11 11 11 13 11 10 11 10 8 7 7 7 7 7 7 7 7 7 7 6 6 6 6 5 5 5 5 6 5 5 5 5 5 4 4 5 4 4 4 2
13 13 13 11 11 9 8 9 8 8 8 7 8 8 9 9 10 9 8 8 9 10 10 9 9 8 8 8 9 8 7 9 10 10 10 11 12 11 11 11 11 10 11 13 10 9 10 10 10 11 11 11 10 8 7 7 6 6 7 7 7 7 7 7 8 7 6 6 7 7 6 5 5 5 6 5 5 5 3 4 3 6 2 3 4
13 14 12 10 11 9 8 9 8 8 8 8 8 8 9 10 9 9 8 9 13 12 10 9 9 9 8 8 9 11 12 11 10 15 14 16 17 15 13 14 13 11 14 20 13 10 10 11 11 12 12 11 11 10 9 8 7 7 7 7 7 7 7 7 6 7 6 7 7 7 7 7 7 6 6 6 4 4 4 5 4 4 5 4 4
11 13 12 11 11 10 9 9 8 8 8 8 7 8 8 7 10 12 8 7 10 12 12 6 6 8 8 7 7 9 3 9 15 18 19 20 19 19 16 17 19 19 21 15 12 11 11 11 11 10 11 10 10 10 9 9 9 8 8 7 7 7 7 7 6 7 7 7 7 7 7 7 7 6 6 6 6 4 4 2 4 4 5 5 6
11 12 12 11 11 10 9 9 8 8 8 7 7 7 7 8 7 7 10 8 9 11 9 7 9 10 11 10 7 5 8 12 16 19 21 22 22 21 19 20 22 23 24 20 11 10 11 11 12 11 11 11 11 9 9 10 9 9 9 8 7 6 8 8 7 7 7 7 7 7 7 7 7 6 6 6 5 5 5 4 4 5 5 5 6
11 12 13 13 11 11 10 9 8 8 8 8 8 7 8 8 8 6 3 7 9 10 10 10 11 11 13 13 14 12 11 12 17 20 21 21 22 20 20 22 24 25 26 16 12 11 10 10 11 10 11 11 10 10 9 9 10 9 9 9 9 7 6 6 7 7 7 7 7 7 7 7 7 6 6 6 5 4 4 5 5 5 5 5 4
12 11 12 12 12 11 10 9 9 9 8 8 8 8 8 8 8 6 6 4 4 7 9 11 12 11 12 13 13 14 13 15 17 19 21 20 22 21 20 17 23 26 21 12 11 10 10 10 9 10 10 9 8 8 8 8 8 8 7 6 6 6 5 5 6 6 6 7 7 6 6 6 7 7 6 6 5 5 5 5 5 6 6 6 6
12 14 18 15 11 12 11 9 9 9 8 8 8 8 8 8 7 8 9 9 8 8 7 7 10 13 10 11 14 15 15 15 17 19 20 20 20 20 20 13 15 14 14 10 9 9 9 9 9 8 8 8 8 9 9 8 7 7 7 7 6 6 6 6 6 6 6 6 6 6 6 7 7 7 7 6 6 6 6 6 7 7 6 6 6
13 12 12 13 11 10 10 10 9 9 9 9 8 8 8 7 8 8 7 7 6 6 4 5 5 7 11 9 11 13 14 15 16 18 18 20 21 23 13 11 10 10 10 9 8 7 7 7 8 8 8 7 7 7 7 8 7 7 6 7 8 7 7 6 6 6 6 6 6 6 6 6 7 6 6 7 7 7 6 7 7 6 6 6 6
12 13 13 12 10 10 10 10 10 10 9 8 8 8 7 7 6 6 5 6 6 5 5 4 5 4 4 3 8 12 14 14 15 17 19 20 22 13 6 7 7 8 8 8 8 7 8 6 6 7 7 7 7 7 7 7 7 7 7 7 7 7 7 6 6 6 6 5 5 6 6 6 6 6 7 6 5 6 6 6 6 6 7 7 6
13 13 13 13 12 12 11 10 10 11 10 8 7 7 7 7 7 6 5 5 5 6 6 5 5 5 5 4 5 5 9 12 15 15 16 17 14 9 7 7 7 6 6 6 7 7 7 6 6 6 6 6 7 7 7 7 8 8 8 7 7 6 7 7 7 7 6 6 6 6 6 6 6 6 6 6 6 6 6 6 6 6 4 6 5
12 17 22 24 18 14 11 10 9 9 8 7 7 7 7 7 6 6 5 5 6 6 5 6 5 5 5 5 6 6 8 8 8 8 9 8 7 6 7 6 6 4 5 6 6 6 6 6 5 6 6 6 7 7 7 7 7 7 7 7 7 6 7 6 6 6 6 6 6 6 6 6 5 5 6 6 6 6 6 6 6 6 6 6 6
13 13 14 19 13 13 12 10 9 8 7 8 7 7 7 7 7 7 7 7 8 8 8 9 9 8 7 7 7 7 7 6 6 6 6 6 6 6 5 5 5 5 6 6 5 6 6 6 6 6 6 6 7 7 6 7 7 7 7 7 7 7 7 6 6 6 6 5 6 6 6 6 6 5 5 5 6 6 6 6 6 6 7 5 5
11 12 14 14 14 12 11 10 8 8 7 7 7 7 8 7 7 5 6 5 4 4 4 3 4 4 5 7 11 9 6 6 6 5 5 6 6 6 6 5 6 6 5 6 6 6 6 7 6 6 6 6 6 6 6 6 7 7 6 6 6 6 6 5 6 6 6 6 6 6 5 5 5 6 6 6 5 6 6 5 5 5 6 4 4
11 11 12 11 11 10 10 8 6 6 7 6 8 8 6 6 6 6 6 6 4 3 4 4 4 4 6 11 10 11 6 5 5 5 7 7 7 6 6 6 6 6 6 6 6 7 7 6 6 6 6 6 6 6 6 6 6 6 6 6 6 6 6 6 5 6 6 5 5 6 5 6 6 6 5 5 5 5 6 5 6 6 6 5 4
13 11 11 10 10 9 8 8 6 6 6 6 6 4 5 6 6 5 6 4 6 6 6 5 4 3 4 8 9 9 6 5 5 6 6 7 7 6 6 6 6 6 5 5 5 6 6 7 6 5 6 6 6 7 7 6 6 6 6 6 6 6 6 5 5 5 5 5 5 5 5 6 6 6 5 5 5 6 6 5 4 5 5 5 5
12 11 10 10 8 7 5 4 4 4 4 3 4 3 4 5 6 6 6 6 6 6 6 6 6 5 5 7 8 6 6 5 5 6 7 6 6 6 6 5 5 5 5 5 4 5 6 7 6 5 5 4 4 5 5 5 6 7 6 6 6 6 6 6 6 6 6 6 6 6 6 5 5 6 5 6 5 6 5 4 5 5 4 5 5
10 10 9 8 6 5 4 3 3 4 3 4 5 5 4 6 6 6 6 6 5 6 6 6 5 6 5 5 6 6 6 6 5 5 6 6 7 7 6 5 6 7 6 6 5 5 6 7 7 7 6 5 5 6 6 5 4 4 5 6 6 6 6 7 7 5 6 6 7 6 6 6 6 6 6 6 5 5 6 5 5 4 4 4 5
9 8 6 5 3 0 1 2 1 3 3 4 5 5 5 5 5 6 5 6 6 7 7 6 6 6 5 6 6 5 6 6 5 6 5 6 6 6 6 6 5 4 5 6 6 7 6 6 7 7 7 6 6 5 5 5 5 5 4 4 5 5 4 4 5 6 6 6 7 6 6 5 5 6 6 6 6 5 5 4 4 5 6 6 6
7 5 4 1 1 1 1 2 3 4 4 4 4 5 5 5 5 5 4 6 7 5 7 6 6 6 5 6 6 6 5 7 6 5 6 7 6 6 6 5 5 7 8 7 7 6 6 6 6 7 7 6 6 6 5 5 5 4 4 4 5 5 5 5 5 6 6 6 6 6 6 6 6 4 6 4 4 5 4 6 6 6 6 6 6
5 4 2 1 1 3 3 3 5 4 5 5 5 4 4 4 5 5 5 6 7 6 6 6 6 6 5 5 5 6 6 6 6 5 7 7 5 4 5 7 10 9 7 6 5 5 5 5 6 6 6 6 6 5 5 4 4 4 5 4 4 5 5 5 5 4 5 5 6 6 6 6 5 5 5 6 5 5 5 6 5 4 5 5 5
5 4 4 4 4 3 2 3 3 5 7 7 6 6 4 6 6 5 5 6 6 5 5 6 6 6 6 6 5 6 6 5 7 6 6 6 4 4 6 7 6 6 6 5 5 5 5 5 5 5 5 5 5 5 5 4 4 4 3 4 4 7 7 6 5 4 5 6 6 6 5 6 6 5 6 6 6 6 6 5 5 5 4 4 5
6 6 5 4 3 3 3 3 4 4 3 4 6 7 6 6 6 5 6 6 6 6 5 6 6 6 6 6 5 5 5 6 5 5 5 5 5 7 8 7 6 5 5 5 4 4 4 4 5 5 5 4 4 4 4 4 3 4 3 4 6 8 7 7 6 6 6 4 6 6 6 6 5 5 6 6 6 6 6 6 5 6 5 5 5
6 6 5 5 5 4 4 4 4 5 5 5 4 4 6 6 6 6 6 6 6 5 5 5 6 6 5 5 4 6 5 5 5 5 5 5 6 6 5 5 6 7 6 5 5 4 4 4 4 4 4 4 3 3 3 3 2 3 4 4 5 6 7 7 5 6 7 5 4 5 6 6 6 6 6 5 5 6 7 6 6 5 5 5 5
Wind_Direction
210 220 209 222 222 224 222 219 225 222 229 223 227 228 224 218 217 214 205 213 199 209 210 208 207 209 209 211 210 207 207 209 205 202 203 207 205 203 198 198 200 205 198 198 190 186 189 194 193 193 173 183 190 188 191 188 182 179 165 156 157 162 150 144 142 131 75 78 118 162 150 136 175 198 205 204 208 217 215 223 213 222 232 238 248
219 221 215 220 221 224 224 224 222 223 228 227 228 228 221 217 213 205 214 214 199 207 209 206 207 207 209 213 215 212 209 208 200 197 202 206 207 204 199 197 203 202 195 198 193 191 187 188 187 179 175 184 176 184 182 174 176 166 177 162 159 168 166 123 140 142 162 117 92 61 123 168 184 178 200 198 219 202 220 223 221 222 233 239 248
217 216 216 221 226 224 225 226 221 225 227 229 230 226 220 216 204 209 213 211 206 209 205 203 204 208 211 214 212 212 210 208 199 196 204 205 205 204 201 198 197 193 191 197 193 188 185 189 187 175 169 172 182 182 176 179 173 172 175 168 153 155 158 137 132 140 155 173 146 138 158 174 199 194 207 214 211 189 214 224 225 229 232 236 244
213 213 219 222 219 221 228 225 221 226 227 230 230 227 217 216 205 214 214 208 210 210 205 204 204 206 212 214 213 211 209 207 200 202 203 202 203 200 195 200 204 201 199 195 189 186 190 187 187 178 173 174 176 175 179 175 171 166 161 166 148 148 145 135 135 131 153 153 191 162 171 161 224 206 202 206 203 201 209 240 210 229 234 230 237
209 217 216 227 222 218 224 219 225 227 229 229 231 226 219 216 211 215 211 215 214 208 211 204 208 209 213 214 213 213 210 203 203 206 208 206 204 200 197 197 200 202 201 197 191 190 190 192 185 180 177 175 174 178 173 171 168 160 162 168 156 146 138 135 132 132 147 159 153 174 140 196 181 165 171 185 221 217 224 230 233 236 250 241 242
214 216 218 223 230 231 235 220 221 226 228 230 229 222 219 217 216 219 212 217 212 213 210 207 208 213 216 217 214 214 209 205 206 206 206 205 204 202 200 199 202 201 200 197 191 192 191 191 182 181 180 180 179 177 173 169 162 166 164 168 158 144 135 130 133 143 147 151 151 143 158 183 192 199 190 195 191 214 240 251 260 248 243 275 254
215 219 221 222 230 234 233 230 230 230 227 227 219 214 216 217 215 220 213 216 215 214 213 212 212 212 216 213 213 210 208 208 209 210 209 207 206 202 200 200 200 200 199 196 192 193 191 186 180 184 185 186 177 174 170 169 169 174 172 162 153 136 136 141 145 148 152 147 144 152 164 206 178 214 170 180 194 196 221 261 288 243 201 224 277
220 225 225 229 233 240 236 233 232 232 228 222 218 217 216 216 219 220 210 218 220 217 212 210 210 209 216 214 213 208 208 210 212 212 210 207 203 206 202 200 199 200 198 195 193 194 192 188 185 188 189 187 180 176 170 173 169 161 164 153 152 144 143 145 149 153 158 161 161 158 166 175 214 198 94 99 190 272 208 198 239 260 235 205 222
228 233 233 235 238 239 243 236 230 230 223 223 222 219 218 216 215 214 216 222 221 220 216 208 208 213 217 215 213 209 209 211 209 206 205 205 204 205 203 201 198 198 197 197 197 196 194 192 190 191 193 189 184 177 178 169 162 163 169 157 151 145 145 153 157 156 161 160 157 136 155 184 195 178 195 191 199 213 196 172 223 249 279 306 276
228 234 233 238 243 247 250 250 238 229 226 228 229 227 223 219 215 217 220 221 221 218 216 212 214 216 214 217 215 211 214 214 210 206 203 200 199 202 202 203 200 198 195 195 199 202 200 195 194 190 189 188 183 181 177 172 171 163 159 158 153 152 159 159 165 172 166 168 172 162 175 208 205 202 205 214 197 159 150 168 199 231 210 272 278
229 234 242 243 250 256 254 248 236 233 230 233 228 224 223 218 220 224 226 223 221 219 212 215 218 218 218 216 216 217 217 213 207 207 208 205 199 201 200 203 201 199 196 194 195 195 197 200 199 194 190 184 181 178 176 169 162 150 149 154 161 161 161 169 176 174 174 170 161 166 186 205 215 198 211 201 176 185 192 179 191 157 211 264 290
236 240 245 252 253 252 250 252 241 240 233 235 228 225 221 219 224 225 226 224 224 218 219 221 222 219 220 221 221 220 221 213 206 208 209 206 201 200 200 201 199 200 198 197 198 193 192 189 188 183 190 184 173 175 172 162 155 148 151 156 164 176 176 169 166 174 173 160 164 187 182 205 206 186 203 182 200 183 181 166 174 178 216 227 241
251 252 252 250 254 253 253 247 245 244 238 237 229 221 218 224 227 225 226 223 217 217 223 221 225 221 220 222 225 222 226 213 211 209 208 208 201 197 204 203 199 203 201 201 197 193 188 184 176 171 175 175 170 168 166 164 156 149 150 160 167 176 186 194 184 170 162 159 171 181 192 194 192 207 185 183 158 174 156 168 181 195 199 226 243
251 260 262 260 260 259 254 247 247 246 243 235 224 223 219 226 226 223 223 214 216 221 221 223 223 223 222 223 226 225 225 214 211 211 210 208 204 192 207 203 204 204 204 199 197 191 185 173 172 175 172 172 173 168 163 153 142 140 154 164 172 182 185 180 175 153 159 170 170 186 200 169 197 177 175 158 152 175 169 197 184 187 208 226 240
271 265 273 272 264 258 253 250 251 253 244 234 226 227 226 232 226 220 215 217 215 218 217 220 222 221 222 221 225 225 224 213 213 211 211 210 200 193 208 203 204 207 206 200 195 188 184 183 180 173 167 169 174 166 156 149 145 150 161 170 175 187 189 187 176 168 172 175 184 194 160 188 191 146 159 170 170 175 170 183 181 187 201 333 358
286 290 282 275 266 262 255 256 253 252 245 234 228 232 230 227 226 217 217 224 224 224 228 222 224 221 221 220 223 228 223 211 212 212 212 210 205 203 205 200 202 204 203 198 194 189 185 182 180 176 174 173 169 163 152 147 151 155 164 172 179 192 204 198 172 168 169 173 183 183 166 172 179 166 162 163 167 155 136 103 71 86 87 28 275
289 289 281 278 275 269 257 255 258 253 245 240 236 235 232 230 228 207 217 221 219 220 222 219 219 219 220 219 223 230 226 212 210 212 212 209 201 203 199 198 201 201 199 193 190 187 186 186 185 177 166 166 167 160 150 147 154 161 166 174 180 184 198 191 184 179 176 180 191 196 195 191 193 193 190 189 181 160 126 135 197 145 120 156 288
286 282 279 279 276 271 258 250 254 254 246 241 241 240 235 233 228 199 212 217 220 222 218 223 220 218 218 220 219 225 227 213 211 212 211 207 199 199 197 198 201 197 195 190 187 185 185 180 177 171 168 166 164 159 155 151 157 165 169 169 172 189 196 179 180 198 199 199 204 207 208 208 203 202 204 204 205 164 155 184 199 143 173 168 206
295 287 284 282 277 271 263 255 251 252 249 246 241 242 234 229 225 204 218 219 226 216 213 218 222 220 221 222 220 222 227 218 212 214 212 207 201 199 196 200 199 198 187 185 183 181 179 180 179 178 177 162 162 161 160 161 165 169 170 165 175 193 196 172 175 169 177 181 204 198 209 212 205 187 207 211 214 173 174 180 163 153 194 207 211
295 290 286 285 280 276 264 258 254 249 251 253 246 241 238 230 221 211 219 216 225 214 213 217 220 224 217 221 222 221 224 222 214 216 213 207 199 192 195 196 200 190 184 178 177 182 178 181 186 184 173 164 166 166 167 168 164 166 161 167 175 199 167 169 173 167 171 175 179 177 185 161 153 160 172 193 210 197 170 170 176 180 197 206 203
298 293 293 290 286 278 270 254 257 255 247 252 252 249 232 227 219 213 219 218 220 221 216 219 223 228 216 216 216 219 216 216 212 211 211 206 200 188 196 199 195 185 185 180 182 176 177 181 175 182 177 173 173 170 169 170 168 163 169 177 190 153 141 150 162 159 161 166 167 170 182 172 181 185 193 196 206 215 207 197 194 194 192 203 211
296 295 293 290 288 284 276 269 254 258 258 250 255 250 237 221 219 215 216 211 216 222 217 218 223 228 221 215 215 219 214 211 207 210 210 207 204 183 193 196 184 178 175 181 179 178 178 176 181 181 180 180 182 173 171 172 165 158 179 176 150 142 147 141 145 148 151 158 157 167 169 174 181 183 198 201 209 212 209 217 210 201 208 206 207
295 292 290 289 286 282 279 272 268 259 257 246 243 251 232 215 220 207 207 209 214 219 214 211 214 224 222 222 220 217 208 211 207 207 210 207 194 180 181 170 176 176 175 181 182 181 182 180 180 176 178 178 180 176 172 170 163 175 173 165 160 142 130 137 145 149 155 159 162 171 177 180 187 192 196 203 210 214 220 211 206 186 127 79 68
300 295 291 287 285 282 276 272 266 260 256 250 242 246 233 216 212 206 200 203 207 213 213 202 205 210 211 216 216 209 204 202 208 205 206 207 199 192 187 175 171 174 174 176 175 177 178 179 183 181 173 173 178 175 173 171 168 173 170 170 166 151 140 142 151 156 158 163 173 181 186 187 187 192 192 193 205 204 171 123 97 90 116 106 95
304 297 293 289 284 281 279 271 265 258 253 239 241 237 232 205 213 211 194 206 205 212 213 199 206 206 204 207 204 199 197 201 201 205 204 203 201 191 179 170 172 163 169 177 172 177 176 176 174 178 173 175 178 175 173 173 176 169 169 173 171 162 156 156 157 159 172 185 187 188 187 186 186 185 186 171 116 93 106 89 85 81 87 98 108
300 293 290 287 282 279 279 273 261 254 248 235 234 230 217 208 212 205 198 203 203 208 208 204 215 214 216 213 205 200 197 197 202 199 202 200 194 187 187 174 171 171 173 173 178 174 170 168 170 174 170 173 173 173 171 169 172 168 171 173 174 170 162 162 165 174 189 185 185 187 185 171 165 154 130 133 150 167 156 153 146 130 107 103 36
288 287 283 284 283 277 269 271 268 255 241 238 234 232 222 215 212 209 205 204 206 206 203 204 209 213 218 214 203 191 192 198 196 193 192 189 187 182 175 177 174 172 175 170 168 168 167 168 174 176 175 175 173 164 159 161 164 171 172 177 175 174 173 175 178 182 179 173 177 177 159 136 117 119 139 153 167 167 166 158 153 145 108 58 93
289 288 287 284 278 273 267 263 259 256 241 223 225 226 222 213 214 211 202 203 200 209 205 206 206 205 211 202 193 194 201 202 199 192 191 185 184 180 180 176 179 177 173 170 169 168 165 166 166 174 173 176 177 172 167 165 167 167 175 178 177 172 173 168 160 167 166 163 150 124 114 136 144 150 153 162 161 153 153 147 141 127 114 116 74
286 283 282 284 278 271 259 261 253 250 247 236 229 217 207 207 216 227 224 205 201 198 203 215 211 205 203 196 190 202 203 206 208 198 194 189 185 181 179 181 176 175 172 162 156 158 161 167 174 177 183 184 182 176 169 161 170 172 171 170 165 165 163 168 175 175 160 148 155 153 153 151 154 155 156 155 157 156 139 108 97 130 107 98 171
291 286 283 279 275 273 265 257 252 247 244 241 240 248 240 222 219 217 226 217 217 219 206 214 210 202 205 210 195 200 205 210 186 189 194 193 192 187 182 174 170 163 166 165 163 166 173 174 179 181 182 185 185 183 177 173 169 171 178 167 163 165 170 171 166 161 162 160 154 151 157 155 143 157 157 155 135 109 155 154 147 140 139 174 193
281 282 282 278 270 264 259 257 249 242 242 240 236 238 248 249 228 229 228 225 224 222 220 194 188 203 197 208 212 218 183 171 175 187 193 194 192 190 181 176 168 163 167 163 170 177 177 179 180 180 184 185 186 184 176 174 177 174 172 169 167 169 168 168 171 159 161 155 153 152 151 156 157 157 157 152 150 150 150 166 139 165 170 173 192
272 276 278 277 274 265 256 253 250 243 243 234 230 232 234 238 257 227 215 213 222 223 215 183 189 187 202 203 193 198 191 183 185 190 194 193 192 189 181 178 171 167 175 170 172 183 183 180 180 183 181 183 186 178 175 179 177 174 164 164 179 181 172 182 172 160 158 154 154 154 156 154 153 152 148 150 148 153 166 175 179 181 195 182 202
273 275 277 279 279 274 266 256 247 238 239 229 228 221 224 228 227 238 228 201 205 214 214 213 210 208 203 207 203 204 201 191 189 193 194 192 190 189 184 179 173 172 175 176 182 184 185 184 182 182 182 186 180 177 179 178 174 172 171 175 177 184 181 165 151 154 154 156 150 158 158 154 150 149 150 151 151 171 178 188 188 193 186 189 212
279 275 278 278 278 274 266 255 248 242 230 226 224 220 225 221 227 213 200 193 201 213 213 206 206 200 203 197 194 198 196 191 194 192 192 191 189 187 181 173 173 175 177 178 179 182 179 182 182 182 182 179 173 169 170 170 168 167 166 170 159 149 151 141 146 153 152 157 157 160 154 152 150 149 156 154 168 176 187 193 183 187 201 198 206
287 279 271 268 266 266 263 255 247 240 232 223 221 220 220 220 213 212 210 205 199 192 193 198 201 198 202 199 195 192 194 194 195 193 190 189 186 184 177 170 175 181 180 181 181 179 178 179 176 175 171 169 168 168 170 165 161 163 163 154 143 145 141 149 156 155 160 160 159 164 162 158 160 159 163 170 174 182 189 194 199 196 196 200 194
291 287 285 276 265 261 257 252 242 234 231 226 220 217 214 210 211 216 217 213 198 185 177 177 168 195 196 198 193 190 190 192 193 191 187 184 181 178 172 177 178 182 179 173 174 171 171 174 169 168 167 165 160 164 162 159 160 153 147 147 150 153 154 157 163 164 167 161 165 157 158 163 161 162 165 170 179 186 192 198 202 201 195 196 189
291 290 287 284 276 266 261 251 242 235 229 224 216 213 207 207 211 211 208 204 190 169 152 125 113 127 149 161 183 191 191 192 191 184 184 184 179 177 171 174 175 172 169 169 164 160 171 173 163 158 161 159 158 154 146 148 143 143 144 146 146 149 160 161 162 160 156 158 164 167 167 172 170 169 167 178 190 190 196 191 190 191 190 192 171
283 280 281 282 281 272 263 254 246 233 226 217 212 206 200 199 199 200 192 185 170 156 149 140 143 157 156 167 158 167 180 179 174 172 176 179 182 182 177 179 181 178 155 155 157 159 160 150 149 154 153 150 151 150 149 148 150 148 148 145 146 153 155 160 162 160 163 163 167 172 173 174 173 170 169 179 189 190 197 190 183 193 193 181 172
283 277 275 273 270 268 263 255 242 230 221 211 204 198 197 188 183 179 173 161 162 156 144 141 143 149 153 142 132 147 153 167 172 172 169 173 165 155 156 164 165 143 126 138 133 140 137 142 141 138 145 149 151 152 149 147 144 143 141 140 146 156 160 157 162 161 161 169 168 171 173 175 171 172 173 174 187 187 191 189 189 186 189 196 198
288 286 283 277 270 262 255 249 237 223 213 200 202 192 194 187 187 183 178 180 182 177 167 166 163 162 163 152 151 156 163 169 164 161 153 139 129 132 130 131 130 127 129 129 132 130 133 131 137 139 143 144 146 143 142 139 140 138 139 145 149 157 157 159 162 163 174 171 167 171 172 173 172 164 168 176 180 176 177 186 193 192 192 197 199
281 282 282 279 269 266 256 244 232 219 208 201 198 192 196 189 181 178 175 180 174 169 157 139 127 125 139 150 154 152 142 149 149 137 118 119 119 117 113 105 111 113 112 119 124 126 129 130 130 132 130 133 135 135 134 134 130 137 142 142 144 146 146 152 156 163 159 160 166 168 173 160 156 159 177 192 176 171 186 178 181 184 190 186 179
277 278 280 279 270 256 253 238 229 215 203 198 195 193 186 177 171 165 166 160 146 138 126 100 101 101 149 149 150 149 120 96 99 102 106 108 107 101 98 99 103 113 118 120 127 128 124 121 119 122 125 125 126 124 122 128 138 139 142 142 143 141 152 161 163 158 157 162 163 167 165 166 168 177 173 159 163 162 166 173 181 177 176 177 176
277 274 277 273 269 253 244 236 215 209 196 196 195 183 168 164 159 154 147 142 142 137 127 119 105 94 126 142 124 104 82 93 92 99 95 96 91 85 83 82 78 71 83 85 88 111 118 117 110 107 118 124 129 138 144 144 143 138 138 142 147 154 158 154 151 157 150 151 164 167 165 169 166 166 162 162 167 168 177 176 176 176 183 177 180
277 275 271 268 262 256 253 226 211 198 191 159 135 139 140 134 131 136 138 136 132 120 123 125 133 122 99 99 98 91 96 98 103 100 103 98 96 95 94 93 94 93 88 82 78 88 109 108 105 80 59 71 79 79 98 124 132 138 140 140 147 156 158 162 169 167 167 163 163 165 170 171 166 160 166 163 156 168 179 176 181 182 179 186 175
277 274 269 263 260 244 247 223 188 146 129 132 136 132 132 134 139 135 134 131 123 121 121 124 111 102 102 94 96 103 99 98 100 100 96 102 102 104 104 93 94 102 96 91 94 103 104 113 117 118 107 85 78 92 93 90 90 113 138 148 155 165 176 180 184 171 160 156 161 162 163 163 165 168 172 170 174 174 181 190 187 178 182 182 181
278 273 268 262 266 286 31 56 67 112 135 141 141 134 124 122 125 130 130 124 125 127 127 116 104 101 99 101 103 105 109 107 98 100 100 100 111 110 107 106 86 72 76 78 85 90 98 110 118 117 114 109 100 90 88 88 88 92 101 118 142 157 157 143 130 142 158 157 158 162 159 161 167 174 174 173 179 179 188 182 182 190 191 192 201
288 278 291 230 229 107 94 124 125 114 104 94 95 103 110 110 111 113 115 123 127 128 124 120 115 114 113 118 120 116 116 116 118 110 108 113 108 105 104 98 94 84 74 66 66 88 99 97 101 111 111 109 103 98 92 86 90 98 105 104 107 110 125 144 155 156 159 159 148 144 156 161 168 171 174 163 171 183 181 188 188 196 202 196 193
311 324 327 328 227 142 142 129 116 115 105 104 100 100 103 107 111 114 119 122 123 123 117 112 110 112 112 111 114 114 108 107 105 106 112 113 93 87 93 87 73 76 87 85 78 81 89 99 103 107 111 112 113 113 112 109 104 101 99 103 115 128 136 141 143 138 139 139 145 148 150 156 161 168 171 174 185 180 185 208 199 203 194 198 192
338 342 346 354 5 7 34 76 98 99 88 101 110 106 109 110 105 105 105 106 104 103 108 112 110 107 109 108 108 109 112 111 111 105 100 108 87 84 77 88 98 95 96 93 90 87 92 94 98 102 110 116 119 125 130 133 136 135 137 138 147 140 135 131 133 141 132 130 133 133 137 145 160 173 178 184 189 189 199 199 191 197 195 192 188
350 347 351 354 28 20 15 56 69 89 88 98 110 109 101 104 101 99 101 101 99 99 98 101 109 117 123 122 115 104 94 96 94 98 97 95 84 79 75 90 100 99 104 108 104 98 93 90 96 99 106 114 122 128 135 143 153 161 157 167 175 161 152 142 132 132 135 142 144 149 152 160 165 173 184 189 188 188 197 202 196 191 190 191 197
5 5 8 11 14 26 39 61 77 77 95 107 99 90 103 102 95 94 90 94 96 94 92 99 107 103 100 99 105 104 96 92 91 94 93 91 92 103 108 106 103 71 84 93 95 92 97 94 102 104 111 113 121 130 140 153 157 163 179 189 189 182 171 162 157 158 149 146 141 143 156 167 175 183 191 191 187 192 204 198 193 192 197 196 194